Location: Cicognara
(44.9500°N, 10.4667°E)
Time: 12:50:52
(UTC+00:00)

Cosmos 1408 - Pass Details

Date: 20 June 2021
Orbit: 466 x 492 km, 82.6° (Epoch: 03 August)

Event Time Altitude Azimuth Distance (km) Brightness Sun altitude
Exits shadow 23:53:13 85° 211° (SSW) 498 2.4 -21.2°
Maximum altitude 23:53:18 88° 271° (W) 496 2.4 -21.2°
Drops below altitude 10° 23:57:01 10° 8° (N) 1,694 6.5 -21.1°
Sets 23:59:08 0° 9° (N) 2,583 7.8 -21.0°
